Location: Newark
(44.3449°N, 4.8694°E)
Time: 01:07:46
(UTC+00:00)

Envisat - Visible Passes

Search period start: 20 January 2020 00:00
Search period end: 30 January 2020 00:00
Orbit: 764 x 766 km, 98.1° (Epoch: 19 January)

Date Brightness Start Highest point End Pass type
(mag) Time Alt. Az. Time Alt. Az. Time Alt. Az.
20 Jan 4.2 05:59:23 10° NNE 06:04:17 46° E 06:09:09 10° S visible
20 Jan 3.0 17:15:20 10° SSE 17:20:23 71° ENE 17:25:28 10° N visible
20 Jan 6.0 18:57:06 10° WSW 18:59:56 15° W 19:02:46 10° NW visible
21 Jan 5.6 05:23:22 10° NE 05:27:15 22° E 05:31:07 10° SE visible
21 Jan 4.9 18:18:17 10° SSW 18:22:47 32° W 18:27:19 10° NNW visible
22 Jan 3.2 06:24:43 10° NNE 06:29:50 80° ESE 06:34:54 10° S visible
22 Jan 3.4 17:40:49 10° S 17:45:51 69° WSW 17:50:57 10° NNW visible
23 Jan 4.7 05:48:14 10° NNE 05:52:56 37° E 05:57:37 10° SSE visible
23 Jan 3.1 17:04:10 10° SSE 17:09:07 56° ENE 17:14:06 10° N visible
23 Jan 5.8 18:45:00 10° SW 18:48:30 19° W 18:52:03 10° NW visible
24 Jan 6.0 05:12:31 10° NE 05:15:50 17° E 05:19:09 10° SE visible
24 Jan 4.5 18:06:41 10° SSW 18:11:26 39° W 18:16:12 10° NNW visible
25 Jan 3.6 06:13:28 10° NNE 06:18:32 63° ESE 06:23:33 10° S visible
25 Jan 3.1 17:29:28 10° SSE 17:34:33 86° WSW 17:39:40 10° NNW visible
25 Jan 6.4 19:13:28 10° W 19:14:20 10° W 19:15:11 10° WNW visible
26 Jan 5.1 05:37:08 10° NE 05:41:34 29° E 05:45:58 10° SSE visible
26 Jan 5.5 18:33:05 10° SW 18:37:06 23° W 18:41:08 10° NW visible
27 Jan 6.2 05:01:53 10° ENE 05:04:25 14° E 05:06:56 10° ESE visible
27 Jan 4.0 17:55:10 10° S 18:00:05 50° W 18:05:02 10° NNW visible
28 Jan 4.1 06:02:14 10° NNE 06:07:12 50° E 06:12:07 10° S visible
28 Jan 3.0 17:18:12 10° SSE 17:23:16 77° ENE 17:28:22 10° N visible
28 Jan 6.2 19:00:24 10° WSW 19:02:53 14° W 19:05:22 10° WNW visible
29 Jan 5.5 05:26:08 10° NE 05:30:11 24° E 05:34:13 10° SE visible
29 Jan 5.1 18:21:20 10° SSW 18:25:42 29° W 18:30:08 10° NW visible
